When you browse on this site, cookies collect data to enhance your experience and personalize the content and advertising you see.
Visit our Privacy Policy to learn more. By continuing to use the site, you agree to this use of cookies and data.

Meteo pe oră la Ilincy

Astăzi, 2 Iulie, Joi

Timp Temperatura Precipitaţii Vânt Presiune Umiditate
00:00 +20°C° 0 mm 1 m/s 739 mmHg 82%
01:00 +19°C° 0 mm 1 m/s 739 mmHg 83%
02:00 +19°C° 0 mm 1 m/s 739 mmHg 85%
03:00 +19°C° 0 mm 1 m/s 739 mmHg 85%
04:00 +19°C° 0 mm 1 m/s 739 mmHg 85%
05:00 +19°C° 0 mm 1 m/s 739 mmHg 85%
06:00 +21°C° 0 mm 1 m/s 739 mmHg 79%
07:00 +23°C° 0 mm 1 m/s 740 mmHg 74%
08:00 +25°C° 0 mm 1 m/s 740 mmHg 69%
09:00 +26°C° 0 mm 1 m/s 740 mmHg 65%
10:00 +27°C° 0 mm 2 m/s 740 mmHg 62%
11:00 +28°C° 0 mm 2 m/s 740 mmHg 59%
12:00 +29°C° 0 mm 2 m/s 740 mmHg 58%
13:00 +29°C° 0 mm 2 m/s 740 mmHg 57%
14:00 +30°C° 0 mm 2 m/s 740 mmHg 55%
15:00 +29°C° 0 mm 2 m/s 739 mmHg 57%
16:00 +29°C° 0 mm 2 m/s 739 mmHg 58%
17:00 +29°C° 0 mm 2 m/s 739 mmHg 60%
18:00 +28°C° 0 mm 2 m/s 739 mmHg 65%
19:00 +26°C° 0 mm 2 m/s 738 mmHg 70%
20:00 +24°C° 0 mm 2 m/s 738 mmHg 75%
21:00 +23°C° 0 mm 2 m/s 738 mmHg 75%
22:00 +23°C° 0 mm 2 m/s 738 mmHg 75%
23:00 +21°C° 0 mm 2 m/s 738 mmHg 75%

Mâine, 3 Iulie, Vineri

Timp Temperatura Precipitaţii Vânt Presiune Umiditate
00:00 +20°C° 0 mm 2 m/s 738 mmHg 77%
01:00 +20°C° 0 mm 2 m/s 738 mmHg 79%
02:00 +20°C° 0 mm 2 m/s 738 mmHg 80%
03:00 +19°C° 0 mm 3 m/s 738 mmHg 81%
04:00 +19°C° 0 mm 3 m/s 738 mmHg 82%
05:00 +19°C° 0 mm 3 m/s 738 mmHg 83%
06:00 +21°C° 0 mm 3 m/s 738 mmHg 79%
07:00 +22°C° 0 mm 3 m/s 738 mmHg 75%
08:00 +25°C° 0 mm 3 m/s 738 mmHg 72%
09:00 +27°C° 0 mm 4 m/s 738 mmHg 67%
10:00 +28°C° 0 mm 4 m/s 739 mmHg 62%
11:00 +29°C° 0 mm 5 m/s 739 mmHg 58%
12:00 +29°C° 0 mm 5 m/s 738 mmHg 57%
13:00 +30°C° 0 mm 5 m/s 738 mmHg 57%
14:00 +30°C° 0 mm 5 m/s 738 mmHg 57%
15:00 +30°C° 0 mm 4 m/s 737 mmHg 59%
16:00 +30°C° 0 mm 4 m/s 737 mmHg 61%
17:00 +30°C° 0 mm 3 m/s 737 mmHg 63%
18:00 +28°C° 0.1 mm 3 m/s 737 mmHg 68%
19:00 +26°C° 0.1 mm 2 m/s 737 mmHg 72%
20:00 +25°C° 0.1 mm 2 m/s 737 mmHg 76%
21:00 +24°C° 0 mm 1 m/s 737 mmHg 77%
22:00 +24°C° 0 mm 1 m/s 738 mmHg 78%
23:00 +23°C° 0 mm 1 m/s 738 mmHg 79%

Poimâine, 4 Iulie, Sâmbătă

Timp Temperatura Precipitaţii Vânt Presiune Umiditate
00:00 +23°C° 0.4 mm 2 m/s 738 mmHg 81%
01:00 +21°C° 0.4 mm 2 m/s 738 mmHg 83%
02:00 +21°C° 0.4 mm 2 m/s 738 mmHg 86%
03:00 +20°C° 0.4 mm 2 m/s 738 mmHg 88%
04:00 +20°C° 0.4 mm 2 m/s 738 mmHg 90%
05:00 +20°C° 0.4 mm 2 m/s 738 mmHg 92%
06:00 +21°C° 0.1 mm 2 m/s 738 mmHg 90%
07:00 +22°C° 0.1 mm 1 m/s 738 mmHg 89%
08:00 +23°C° 0.1 mm 1 m/s 739 mmHg 87%
09:00 +23°C° 0.1 mm 1 m/s 739 mmHg 86%
10:00 +24°C° 0.1 mm 2 m/s 739 mmHg 85%
11:00 +24°C° 0.1 mm 2 m/s 739 mmHg 83%
12:00 +25°C° 0 mm 2 m/s 739 mmHg 78%
13:00 +26°C° 0 mm 2 m/s 739 mmHg 72%
14:00 +28°C° 0 mm 2 m/s 739 mmHg 66%
15:00 +28°C° 0 mm 2 m/s 739 mmHg 68%
16:00 +27°C° 0 mm 2 m/s 739 mmHg 70%
17:00 +27°C° 0 mm 2 m/s 739 mmHg 72%
18:00 +26°C° 0.1 mm 2 m/s 739 mmHg 77%
19:00 +25°C° 0.1 mm 3 m/s 739 mmHg 83%
20:00 +22°C° 0.1 mm 3 m/s 739 mmHg 89%
21:00 +22°C° 0.1 mm 3 m/s 739 mmHg 90%
22:00 +21°C° 0.1 mm 2 m/s 739 mmHg 92%
23:00 +21°C° 0.1 mm 2 m/s 739 mmHg 93%

5 Iulie, Duminică

Timp Temperatura Precipitaţii Vânt Presiune Umiditate
00:00 +20°C° 0 mm 2 m/s 739 mmHg 94%
01:00 +20°C° 0 mm 2 m/s 739 mmHg 94%
02:00 +20°C° 0 mm 2 m/s 739 mmHg 94%
03:00 +20°C° 0 mm 2 m/s 739 mmHg 94%
04:00 +20°C° 0 mm 2 m/s 739 mmHg 94%
05:00 +20°C° 0 mm 2 m/s 739 mmHg 94%
06:00 +20°C° 0.1 mm 2 m/s 739 mmHg 92%
07:00 +21°C° 0.1 mm 3 m/s 739 mmHg 90%
08:00 +22°C° 0.1 mm 3 m/s 740 mmHg 88%
09:00 +24°C° 0 mm 3 m/s 740 mmHg 84%
10:00 +25°C° 0 mm 3 m/s 740 mmHg 80%
11:00 +26°C° 0 mm 4 m/s 740 mmHg 76%
12:00 +26°C° 0 mm 4 m/s 740 mmHg 74%
13:00 +27°C° 0 mm 4 m/s 740 mmHg 72%
14:00 +27°C° 0 mm 3 m/s 739 mmHg 70%
15:00 +27°C° 0 mm 4 m/s 739 mmHg 71%
16:00 +27°C° 0 mm 4 m/s 739 mmHg 72%
17:00 +27°C° 0 mm 4 m/s 739 mmHg 73%
18:00 +25°C° 0.1 mm 3 m/s 739 mmHg 78%
19:00 +24°C° 0.1 mm 3 m/s 739 mmHg 83%
20:00 +23°C° 0.1 mm 2 m/s 739 mmHg 87%
21:00 +21°C° 0 mm 2 m/s 739 mmHg 89%
22:00 +21°C° 0 mm 2 m/s 739 mmHg 90%
23:00 +20°C° 0 mm 2 m/s 739 mmHg 91%

6 Iulie, Luni

Timp Temperatura Precipitaţii Vânt Presiune Umiditate
00:00 +20°C° 0 mm 2 m/s 739 mmHg 92%
01:00 +19°C° 0 mm 2 m/s 739 mmHg 92%
02:00 +19°C° 0 mm 2 m/s 739 mmHg 93%
03:00 +19°C° 0 mm 2 m/s 739 mmHg 93%
04:00 +19°C° 0 mm 2 m/s 739 mmHg 93%
05:00 +19°C° 0 mm 2 m/s 739 mmHg 93%
06:00 +20°C° 0 mm 2 m/s 739 mmHg 87%
07:00 +23°C° 0 mm 2 m/s 739 mmHg 82%
08:00 +25°C° 0 mm 2 m/s 739 mmHg 77%
09:00 +26°C° 0 mm 2 m/s 740 mmHg 72%
10:00 +27°C° 0 mm 2 m/s 740 mmHg 68%
11:00 +28°C° 0 mm 1 m/s 740 mmHg 63%
12:00 +28°C° 0 mm 1 m/s 739 mmHg 62%
13:00 +29°C° 0 mm 1 m/s 739 mmHg 61%
14:00 +29°C° 0 mm 1 m/s 739 mmHg 60%
15:00 +29°C° 0.1 mm 1 m/s 739 mmHg 61%
16:00 +29°C° 0.1 mm 1 m/s 738 mmHg 63%
17:00 +29°C° 0.1 mm 1 m/s 738 mmHg 65%
18:00 +27°C° 0.1 mm 1 m/s 738 mmHg 69%
19:00 +26°C° 0.1 mm 1 m/s 738 mmHg 74%
20:00 +24°C° 0.1 mm 1 m/s 738 mmHg 79%
21:00 +24°C° 0 mm 1 m/s 738 mmHg 81%
22:00 +23°C° 0 mm 1 m/s 738 mmHg 83%
23:00 +22°C° 0 mm 1 m/s 738 mmHg 85%

7 Iulie, Marţi

Timp Temperatura Precipitaţii Vânt Presiune Umiditate
00:00 +22°C° 0 mm 1 m/s 738 mmHg 86%
01:00 +21°C° 0 mm 1 m/s 738 mmHg 87%
02:00 +21°C° 0 mm 1 m/s 738 mmHg 88%
03:00 +21°C° 0 mm 1 m/s 738 mmHg 89%
04:00 +21°C° 0 mm 1 m/s 737 mmHg 89%
05:00 +20°C° 0 mm 2 m/s 737 mmHg 89%
06:00 +21°C° 0 mm 2 m/s 737 mmHg 84%
07:00 +24°C° 0 mm 2 m/s 738 mmHg 79%
08:00 +26°C° 0 mm 2 m/s 738 mmHg 74%
09:00 +27°C° 0 mm 2 m/s 737 mmHg 69%
10:00 +28°C° 0 mm 2 m/s 737 mmHg 64%
11:00 +29°C° 0 mm 2 m/s 737 mmHg 60%
12:00 +29°C° 0 mm 2 m/s 737 mmHg 58%
13:00 +30°C° 0 mm 2 m/s 736 mmHg 57%
14:00 +30°C° 0 mm 2 m/s 736 mmHg 55%
15:00 +30°C° 0 mm 2 m/s 736 mmHg 57%
16:00 +30°C° 0 mm 2 m/s 736 mmHg 59%
17:00 +30°C° 0 mm 2 m/s 736 mmHg 60%
18:00 +28°C° 0.5 mm 2 m/s 736 mmHg 67%
19:00 +26°C° 0.5 mm 2 m/s 736 mmHg 73%
20:00 +25°C° 0.5 mm 2 m/s 736 mmHg 80%
21:00 +24°C° 0.6 mm 2 m/s 736 mmHg 82%
22:00 +22°C° 0.6 mm 3 m/s 736 mmHg 85%
23:00 +21°C° 0.6 mm 3 m/s 736 mmHg 88%
Arată mai mult